Tracking 19177 objects as of 24-May-2018
HD Live streaming from Space Station
objects crossing your sky now

SSU 2

Track SSU 2 now!
10-day predictions
SSU 2 is classified as:


NORAD ID: 8836
Int'l Code: 1976-038D
Perigee: 457.7 km
Apogee: 1,446.8 km
Inclination: 63.3 °
Period: 103.9 minutes
Semi major axis: 7323 km
RCS: Unknown
Launch date: April 30, 1976
Source: United States (US)
Launch site: AIR FORCE WESTERN TEST RANGE (AFWTR)
aabbcc
Your satellite tracking list
Your tracking list is empty




NASA's NSSDC Master Catalog

Two Line Element Set (TLE):
1 08836U 76038D   18139.90774415 0.00000260  00000-0  34840-4 0    02
2 08836  63.3110  81.8328 0675311 139.5833 220.4167 13.85310644    03
Source of the keplerian elements: McCants